Location: Franzen
(48.6167°N, 15.3833°E)
Time: 03:23:12
(UTC+00:00)

Daily predictions for brighter satellites

Satellite Brightness Start Highest point End
(mag) Time Altitude Azimuth Time Altitude Azimuth Time Altitude Azimuth
Cosmos 1825 2.2 00:13:02 35° SSW 00:14:30 72° W 00:18:17 10° N
Cosmos 1076 Rocket 4.4 00:12:59 20° SSE 00:15:28 41° E 00:19:28 10° NNE
Cosmos 540 Rocket 3.5 00:15:11 26° S 00:18:02 71° ESE 00:23:08 10° NNE
DELTA 2 R/B (1) 4.4 00:16:57 26° SSW 00:18:18 29° SSE 00:23:01 10° ESE
Cosmos 1408 3.7 00:19:18 24° WSW 00:20:44 34° WNW 00:24:08 10° N
NOSS 2-2 (E) 4.2 00:20:41 25° SSE 00:21:46 30° ESE 00:25:03 10° ENE
Cosmos 1437 3.6 00:20:20 10° N 00:23:00 38° ENE 00:24:28 21° SE
Cosmos 1242 Rocket 2.5 00:20:35 10° N 00:24:12 80° E 00:26:09 26° SSE
Cosmos 405 Rocket 3.2 00:23:36 29° SW 00:25:06 46° WNW 00:28:41 10° N
SL-16 R/B 3.6 00:20:08 10° WSW 00:25:07 31° NW 00:30:08 10° NNE
Cosmos 841 Rocket 3.5 00:23:03 25° S 00:26:04 72° ESE 00:31:13 10° NNE
Cosmos 2221 2.5 00:21:47 10° NNW 00:26:05 71° W 00:28:23 26° S
Cosmos 1656 Rocket 3.8 00:20:37 10° NNW 00:26:14 61° WSW 00:30:16 19° S
Cosmos 2058 2.9 00:24:22 29° SSW 00:26:20 73° W 00:30:27 10° N
USA 229 DEB 3.8 00:22:35 16° SW 00:27:51 70° NW 00:34:48 10° NE
USA 229 3.8 00:22:43 16° SW 00:27:57 70° NW 00:34:54 10° NE
X-37B 0.9 00:28:46 39° SSW 00:29:15 43° S 00:32:17 10° ESE
Cosmos 1898 Rocket 4.1 00:28:46 10° NW 00:33:35 38° WSW 00:36:10 23° SSW
Cosmos 1937 Rocket 3.8 00:28:49 10° NNW 00:33:59 52° WSW 00:37:19 21° S
Nadezhda 4 Rocket 4.0 00:30:48 22° SSW 00:34:56 76° W 00:41:05 10° N
NOSS 2-2 (C) 4.1 00:34:05 23° SSE 00:35:24 31° ESE 00:38:41 10° ENE
Cosmos 2369 Rocket 3.0 00:31:03 10° NW 00:36:09 34° WSW 00:38:58 22° SSW
Meteor 2-15 4.5 00:30:07 10° N 00:36:19 88° E 00:41:34 15° S
Cosmos 2026 Rocket 4.5 00:31:26 15° SSE 00:36:35 58° E 00:42:48 10° NNE
NOSS 3-1 (C) 4.3 00:31:29 10° WSW 00:36:50 44° NW 00:43:10 10° NE
Aureole 3 Rocket 3.1 00:33:56 10° N 00:37:47 83° E 00:41:59 15° S
USA 307 3.6 00:38:07 25° S 00:39:56 38° SE 00:43:54 10° ENE
FALCON 9 DEB 4.0 00:38:00 10° WNW 00:41:04 46° NNE 00:44:06 10° E
CREW DRAGON DEMO-1 DEB 2.8 00:40:05 23° W 00:41:19 55° NNW 00:43:45 10° ENE
ARGOS Delta rocket 4.2 00:37:23 10° NNE 00:42:55 89° E 00:46:49 20° SSW
USA 215 4.3 00:37:39 10° ENE 00:43:50 46° N 00:50:00 10° W
NOSS 3-1 (A) 3.9 00:42:41 13° WSW 00:47:33 56° NW 00:54:02 10° NE
ATLAS 5 CENTAUR R/B 1.9 00:48:04 23° S 00:50:15 47° ESE 00:54:28 10° NE
CZ-4 R/B 4.5 00:46:04 10° N 00:50:29 43° WNW 00:53:33 19° SW
Helios 1B rocket 2.6 00:47:16 10° NNE 00:51:22 69° ESE 00:54:08 20° S
Cosmos 2298 Rocket 4.5 00:46:41 10° NNW 00:52:00 64° ENE 00:57:17 10° SE
ADEOS Rocket 3.5 00:48:00 10° SSE 00:55:14 74° ENE 01:01:46 10° NNW
Cosmos 1633 2.4 00:53:22 24° SSW 00:55:20 84° W 00:58:53 10° N
Cosmos 1814 Rocket 4.0 00:51:51 20° SSW 00:55:30 85° ESE 01:00:42 10° NNE
USA 308 3.3 00:53:26 23° SSW 00:55:48 48° SE 00:59:55 10° ENE
UNK 3.7 00:54:25 17° S 00:57:58 67° WSW 01:02:36 10° NNW
FALCON 9 DEB 3.2 00:55:07 10° WNW 00:58:12 66° NNE 01:01:15 10° ESE
CZ-3B R/B 3.2 00:50:57 10° WNW 00:58:41 49° N 01:01:30 10° E
Helios 1A 4.4 01:00:06 18° SW 01:01:48 23° W 01:05:12 10° NW
Cosmos 1606 3.2 00:58:27 10° NNW 01:02:06 42° W 01:04:12 21° SSW
Cosmos 2150 Rocket 4.2 00:58:24 10° NNW 01:03:37 73° ENE 01:08:51 10° SSE
FALCON 9 DEB 3.4 01:01:52 10° WNW 01:04:58 62° NNE 01:08:04 10° ESE
SL-16 R/B 2.7 00:59:52 13° S 01:05:17 59° WSW 01:11:24 10° NNW
Cosmos 1570 Rocket 4.0 01:01:44 19° SSW 01:05:34 81° WNW 01:10:51 10° NNE
Cosmos 1933 3.4 01:03:31 10° N 01:07:38 80° E 01:11:43 10° SSE
FALCON 9 DEB 3.1 01:05:20 10° WNW 01:08:27 73° NNE 01:11:33 10° ESE
Cosmos 372 Rocket 4.4 01:03:57 10° NW 01:08:56 45° WSW 01:13:11 14° S
Cosmos 1125 Rocket 3.8 01:06:27 10° NNW 01:11:43 70° ENE 01:16:59 10° SSE
USA 290 2.2 01:11:15 22° SSW 01:13:11 72° WNW 01:16:24 10° NNE
USA 305 2.9 01:10:31 18° SW 01:13:37 67° SE 01:17:50 10° ENE
DELTA 2 DEB (DPAF) 4.4 01:09:29 10° SSE 01:13:54 70° ENE 01:18:21 10° N
Meteor 1-28 Rocket 3.6 01:11:47 10° SSE 01:15:31 63° ENE 01:19:18 10° N
Lacrosse 4 Rocket 1.5 01:11:32 10° NW 01:15:32 52° WSW 01:19:27 10° SSE
CZ-4C R/B 4.0 01:12:25 10° SSE 01:15:53 19° ESE 01:19:45 10° ENE
Cosmos 1092 Rocket 4.1 01:11:05 16° SSW 01:16:00 63° WNW 01:22:08 10° N
Cosmos 1151 Rocket 3.8 01:12:48 10° N 01:16:58 52° ENE 01:21:08 10° SSE
Cosmos 2098 Rocket 4.3 01:15:08 15° SW 01:18:53 33° WNW 01:22:54 10° N
ARIANE 5 R/B 4.4 01:15:51 10° NE 01:19:50 23° E 01:23:49 10° SE
CENTAUR R/B 4.2 01:12:15 10° NW 01:19:51 51° NE 01:28:21 10° ESE
Resurs 1-4 Rocket 2.5 01:14:52 10° N 01:20:03 54° WNW 01:24:23 15° SW
BREEZE-M R/B 3.0 01:18:12 17° SW 01:20:45 52° SSE 01:26:40 10° ENE
Cosmos 2208 Rocket 4.2 01:16:33 16° SSW 01:20:56 76° WNW 01:26:26 10° NNE
IRIDIUM 103 4.5 01:16:34 10° N 01:21:49 79° E 01:27:02 10° S
NOSS 5 (C) 4.3 01:18:46 10° NW 01:21:49 62° SW 01:25:30 10° SSE
Meteor 1-29 2.9 01:20:46 10° NNE 01:24:12 85° ESE 01:26:57 15° SSW
OE (NEXTSAT) 4.4 01:22:39 10° WSW 01:26:02 56° S 01:29:25 10° ESE
Cosmos 1766 Rocket 4.3 01:22:24 10° S 01:26:43 52° E 01:31:05 10° NNE
SL-4 R/B 2.2 01:23:52 10° WNW 01:27:31 61° NNE 01:30:59 10° E
MINOTAUR 4 R/B 4.3 01:26:32 13° S 01:29:30 49° W 01:32:58 10° NNW
Landsat 4 3.7 01:26:13 10° NNE 01:30:02 88° ESE 01:33:22 13° SSW
NPP 4.0 01:25:58 10° N 01:31:14 55° WNW 01:35:57 13° SW
ADEOS II 2.1 01:26:29 10° NNE 01:31:47 86° WNW 01:36:49 11° SSW
NOSS 2-2 (D) 3.2 01:30:21 15° SW 01:33:06 70° NW 01:36:55 10° NE
Cosmos 921 Rocket 4.1 01:32:38 12° WSW 01:35:58 31° WNW 01:39:44 10° N
USA 306 2.9 01:32:05 12° WSW 01:35:59 88° SSE 01:40:16 10° ENE
Lacrosse 5 rocket 2.1 01:32:46 10° NW 01:36:17 49° NNE 01:39:52 10° ESE
Meteor 2-3 Rocket 3.7 01:31:29 11° SSW 01:36:50 81° WNW 01:42:27 10° N
Okean 3 Rocket 3.9 01:33:00 10° S 01:37:20 65° E 01:41:41 10° NNE
FALCON 9 DEB 4.0 01:34:47 10° W 01:37:42 27° SW 01:40:36 10° SSE
CZ-2D R/B 2.9 01:33:51 10° N 01:38:41 40° WNW 01:43:15 11° SW
Cosmos 1943 4.5 01:33:54 10° WSW 01:38:52 31° NW 01:43:54 10° NNE
Cosmos 1655 Rocket 4.4 01:33:46 10° S 01:39:52 63° E 01:46:03 10° NNE
IRIDIUM 106 4.3 01:34:54 10° N 01:40:07 75° W 01:45:19 10° S
Alouette 2 Rocket 3.2 01:37:06 10° NNW 01:40:41 90° ENE 01:44:47 10° SSE
ASTEX 1 3.6 01:40:37 10° SSE 01:45:33 78° E 01:50:30 10° N
IDEFIX/ARIANE 42P 2.8 01:40:57 10° NNE 01:46:13 72° ESE 01:51:25 10° S
Cosmos 2151 3.8 01:44:56 12° SW 01:48:28 37° WNW 01:52:23 10° N
EXPRESS MD2 4.2 01:44:01 10° WSW 01:52:34 88° SSE 01:56:39 10° ENE
Cosmos 2315 Rocket 4.4 01:56:08 10° N 02:02:19 67° ENE 02:08:29 10° SSE
DELTA 2 R/B (1) 4.4 01:59:06 10° WSW 02:03:57 31° S 02:08:48 10° SE
Cosmos 1656 3.9 01:58:38 10° NNW 02:04:24 84° ENE 02:10:05 10° SSE
CBERS-1 4.1 02:00:21 10° N 02:05:29 71° WNW 02:10:35 10° SSW
X-37B 1.7 02:02:51 10° WSW 02:05:31 25° SSW 02:08:11 10° SE
IRS-1D 3.8 02:00:38 10° N 02:05:41 57° WNW 02:10:36 10° SSW
BREEZE-M DEB (TANK) 1.4 02:05:19 10° W 02:07:32 57° SSW 02:10:23 10° ESE
IRS-1C 4.3 02:04:29 10° NNE 02:09:51 77° ESE 02:15:11 10° S
Cosmos 1812 2.7 02:06:08 10° NNW 02:09:58 75° W 02:13:47 10° S
Cosmos 1553 Rocket 4.5 02:04:07 10° NNW 02:10:03 44° W 02:15:52 10° SSW
Cosmos 2292 Rocket 4.1 02:10:10 10° SW 02:12:39 24° WNW 02:15:11 10° NNW
SL-08 R/B 3.4 02:08:23 10° SSE 02:13:04 83° ENE 02:17:51 10° NNW
CZ-2C R/B 3.9 02:09:43 10° NNE 02:14:17 35° E 02:18:40 10° SSE
Cosmos 1697 Rocket 3.5 02:10:14 10° NNW 02:15:50 58° ENE 02:21:25 10° SE
S3M 4.2 02:10:13 10° NNW 02:16:13 57° W 02:22:17 10° S
USA 281 3.3 02:10:59 10° S 02:17:25 57° WSW 02:23:55 10° NNW
